GRBBeta
1 60237U 24128C   26133.90430372  .00002765  00000-0  19753-3 0  9996
2 60237  61.9905 336.5219 0045211 127.6054 232.9156 15.06346661101106
Curium One
1 60242U 24128H   26134.24908623  .00005651  00000-0  33316-3 0  9997
2 60242  61.9790 325.9266 0044666 124.0363 236.4986 15.11941919101322
ROBUSTA-3A
1 60243U 24128J   26134.12903920  .00005248  00000-0  31713-3 0  9991
2 60243  61.9867 328.6362 0045854 121.4904 239.0684 15.11118441101271
CatSat
1 60246U 24125J   26134.19807845  .00037481  00000-0  55474-3 0  9991
2 60246  97.2123 346.3542 0021333 309.0135  50.9220 15.54930068102107
HYPERVIEW-1G (RS66S)
1 61772U 24199AP  26134.25255325  .00077649  00000-0  69426-3 0  9996
2 61772  97.2949  12.4640 0007234  59.6934 300.5042 15.68105068129347
AO-123
1 61781U 24199AY  26134.27579381  .00005429  00000-0  16085-3 0  9999
2 61781  97.3050   3.2580 0015805  73.3731 286.9247 15.35157471128727
JINJUSat 1B
1 63210U 25052A   26134.20195039  .00010748  00000-0  34582-3 0  9996
2 63210  97.4049  30.9349 0003120 167.0393 193.0929 15.32407586 64891
NUSHSAT 1
1 63211U 25052B   26134.23191203  .00013241  00000-0  39701-3 0  9998
2 63211  97.4027  31.4212 0002801 165.0419 195.0907 15.34604895 64932
TEVEL2-4
1 63213U 25052D   26133.21703508  .00010651  00000-0  33272-3 0  9993
2 63213  97.3947  29.5787 0001655 172.7980 187.3286 15.33358313 64757
TEVEL2-5
1 63214U 25052E   26134.27805638  .00012159  00000-0  38099-3 0  9995
2 63214  97.3949  30.5973 0001748 170.1471 189.9805 15.33225860 64912
TEVEL2-6
1 63215U 25052F   26134.22429804  .00011655  00000-0  36578-3 0  9998
2 63215  97.3950  30.5284 0001820 174.0630 186.0634 15.33187265 64904
TEVEL2-1
1 63217U 25052H   26134.24205557  .00011401  00000-0  36339-3 0  9993
2 63217  97.3923  30.2093 0001265 189.7444 170.3773 15.32696559 64898
TEVEL2-3
1 63218U 25052J   26134.23783428  .00011527  00000-0  36683-3 0  9992
2 63218  97.3926  30.2230 0001233 191.3858 168.7356 15.32745490 64895
TEVEL2-2
1 63219U 25052K   26134.24252871  .00011801  00000-0  37595-3 0  9995
2 63219  97.3924  30.2115 0001231 193.1651 166.9559 15.32703860 64895
TEVEL2-9
1 63237U 25052AD  26134.24260618  .00010629  00000-0  35918-3 0  9997
2 63237  97.3986  29.6576 0004079 257.4982 102.5802 15.30825002 64832
TEVEL2-7
1 63238U 25052AE  26134.27731913  .00010189  00000-0  34729-3 0  9992
2 63238  97.3988  29.6220 0004148 257.6092 102.4684 15.30557285 64834
TEVEL2-8
1 63239U 25052AF  26134.21981734  .00010041  00000-0  34249-3 0  9999
2 63239  97.3988  29.5426 0004130 259.1655 100.9121 15.30538178 64823
HYDRA-W
1 63490U 25052BL  26113.93882235  .05662091  24406-5  29537-2 0  9997
2 63490  97.3690  18.2798 0008685 203.5899 156.4993 16.20186780 62336
HADES-ICM (SO-125)
1 63492U 25052BN  26134.22731092  .00894338  36510-3  21295-2 0  9994
2 63492  97.3786  38.4565 0009731 172.8007 187.3411 15.96627123 65437
SPIRONE
1 66657U 25274H   26134.28614331  .00001661  00000-0  16335-3 0  9999
2 66657  97.7480  64.0672 0013470 122.8851 237.3666 14.93400298 25161
K-HERO
1 66660U 25274L   26134.30029229  .00001265  00000-0  12437-3 0  9991
2 66660  97.7488  64.2171 0015251 127.2445 233.0169 14.93827014 25177
SNUGLITE-III DURI
1 66661U 25274M   26133.35141050  .00001359  00000-0  13299-3 0  9994
2 66661  97.7483  63.3007 0015802 131.5001 228.7578 14.93877191 25030
SilverSat
1 66909U 98067XV  26113.44966717  .07226154  12288-4  11979-2 0  9998
2 66909  51.6027 190.0749 0007952 333.4666  26.5949 16.32457272 22308
SAKHACUBE-CHOLBON
1 67290U 25313AU  26134.16120560  .00006484  00000-0  26831-3 0  9990
2 67290  97.3944 209.6371 0010962 114.2650 245.9734 15.24234273 20792
RS95S (QMR-KWT-2)
1 67291U 25313AV  26134.17747033  .00008964  00000-0  35761-3 0  9999
2 67291  97.3943 209.7651 0010639 113.9992 246.2361 15.25356671 20800
Ten-Koh2
1 68261U 25241B   26134.17196803  .00004641  00000-0  20593-3 0  9995
2 68261  51.6540 121.4680 0006314  37.7598 322.3822 15.23440018  9729
JACK-002
1 68417U 26067B   26134.10778649  .00004521  00000-0  21958-3 0  9995
2 68417  97.4544  93.1367 0003691  64.8169 295.3448 15.18950457  6773
DISCO 2
1 68431U 26067R   26133.39586232  .00004607  00000-0  22628-3 0  9996
2 68431  97.4580  92.4264 0004328 104.5015 255.6699 15.18547839  6668
HADES-SA (SpinnyONE)
1 68446U 26067AG  26132.83338234  .00011232  00000-0  55731-3 0  9990
2 68446  97.4387  91.6989 0006910 177.1746 182.9529 15.17853429  6567
PARUS-6U1
1 68456U 26067AS  26133.43395027  .00003618  00000-0  18567-3 0  9996
2 68456  97.4530  92.3479 0005913 164.9165 195.2246 15.17141812  6661
SAL-E
1 68458U 26067AU  26133.43325588  .00004975  00000-0  25328-3 0  9993
2 68458  97.4457  92.3084 0005845 173.7308 186.4000 15.17248037  6661
FSI-SAT 2
1 68792U 26088A   26133.95021350  .00002906  00000-0  20030-3 0  9991
2 68792  97.5027 284.0858 0013677 219.6814 140.3414 15.06542473  3135
OrigamiSat 2
1 68795U 26088D   26134.06264150  .00001721  00000-0  11566-3 0  9992
2 68795  97.5031 284.2449 0015520 191.7012 168.3858 15.07998810  3155
ARICA 2
1 68796U 26088E   26134.32650801  .00002463  00000-0  16318-3 0  9998
2 68796  97.5015 284.5004 0015609 189.1844 170.9101 15.08128984  3192
WASEDA-SAT-ZERO-II
1 68797U 26088F   26134.32563710  .00003549  00000-0  23269-3 0  9990
2 68797  97.5013 284.5015 0015607 189.0364 171.0586 15.08222475  3196
MANGARO-II-Piscus
1 68798U 26088G   26134.12200801  .00002137  00000-0  14050-3 0  9998
2 68798  97.5020 284.3159 0018894 193.6770 166.3949 15.08511423  3166
IO-86
1 40931U          25360.30710720  .00000000  00000-0  12800-3 0    00
2 40931   6.0006 332.5373 0012733 338.8432   8.1437 14.79075515    01
LILIUM-4
1 71922C 26067AC  26089.50133053 -.00014632  00000+0 -74472-3 0    04
2 71922  97.4497  49.1617 0004341   5.9603 355.7042 15.16896692    16
